Overview Statistics Trail Chart Weather Telemetry Raw packets
 

This is the latest recevied weather packets stored in our database for station/object N5CSU. If no packets are shown the sender has not sent any weather packets the latest 10 day(s).

<< 89 90 91 92 93 94 95 >>
Time Temp. Humidity Pressure Rain* Wind** Luminosity Snow
1787959428 37.22° C 37% 1013.9 hPa 0 mm - 8 W/m² -
1787959122 37.22° C 35% 1014.2 hPa 0 mm - 8 W/m² -
1787958818 37.22° C 36% 1014.1 hPa 0 mm - 9 W/m² -
1787958513 37.22° C 36% 1014.1 hPa 0 mm - 15 W/m² -
1787958203 37.78° C 36% 1014 hPa 0 mm - 10 W/m² -
1787957902 37.78° C 35% 1014.2 hPa 0 mm - 27 W/m² -
1787957596 37.78° C 35% 1013.9 hPa 0 mm - 27 W/m² -
1787957292 37.78° C 35% 1014 hPa 0 mm - 17 W/m² -
1787956986 37.78° C 35% 1014.1 hPa 0 mm - 26 W/m² -
1787956685 37.78° C 35% 1014.2 hPa 0 mm - 12 W/m² -
1787956381 37.78° C 34% 1014.1 hPa 0 mm - 13 W/m² -
1787956075 38.33° C 36% 1014.2 hPa 0 mm - 88 W/m² -
1787955770 38.33° C 34% 1014 hPa 0 mm - 47 W/m² -
1787955467 38.33° C 34% 1014.3 hPa 0 mm - 141 W/m² -
1787955165 38.89° C 34% 1014.4 hPa 0 mm - 26 W/m² -
1787954861 38.33° C 34% 1014.5 hPa 0 mm - 27 W/m² -
1787954556 38.89° C 34% 1014.4 hPa 0 mm - 76 W/m² -
1787954251 38.33° C 33% 1014.4 hPa 0 mm - 15 W/m² -
1787953950 38.33° C 33% 1014.4 hPa 0 mm - 20 W/m² -
1787953649 38.33° C 32% 1014.5 hPa 0 mm - 66 W/m² -
1787953344 38.33° C 35% 1014.6 hPa 0 mm - 21 W/m² -
1787953042 38.33° C 35% 1014.7 hPa 0 mm - 17 W/m² -
1787952742 38.33° C 34% 1014.8 hPa 0 mm - 24 W/m² -
1787952436 38.33° C 34% 1014.8 hPa 0 mm - 21 W/m² -
1787952133 38.33° C 34% 1014.8 hPa 0 mm - 18 W/m² -

* Rain latest hour (hover to see other rain measurements)
** Current wind speed in m/s (hover to see current wind gust speed)